Retour au catalogue

STARLINK-11600

ActifCommunicationsVLEO
NORAD 63114·PAYLOAD·🇺🇸 United States

Lancé Feb 27, 2025 depuis Cape Canaveral Space Force Station

Loading…

Prochains Passages (prochaines 24 heures)

TLE

FraisSource: CelesTrak SupGP

Époque: Sep 15, 2026, 03:36 UTC

1 63114C 25039L   26258.15048611  .00041918  00000+0  32555-3 0  2586
2 63114  43.0005 174.6747 0001461 271.4126 121.3490 15.70819701    10

Suivez STARLINK-11600 en temps réel avec AllMySat

Download on the App Store